www.pogodaiklimat.ru
ПОГОДА в Скагене
Время
(UTC), дата
04 10.11
05 10.11
06 10.11
07 10.11
08 10.11
09 10.11
10 10.11
11 10.11
12 10.11
13 10.11
14 10.11
15 10.11
16 10.11
17 10.11
18 10.11
19 10.11
20 10.11
21 10.11
22 10.11
23 10.11
00 11.11
01 11.11
02 11.11
03 11.11
04 11.11
05 11.11
06 11.11
07 11.11
08 11.11
09 11.11
10 11.11
11 11.11
12 11.11
13 11.11
14 11.11
15 11.11
16 11.11
17 11.11
18 11.11
19 11.11
20 11.11
21 11.11
22 11.11
23 11.11
00 12.11
01 12.11
02 12.11
03 12.11
04 12.11
05 12.11
06 12.11
07 12.11
08 12.11
09 12.11
10 12.11
11 12.11
12 12.11
13 12.11
14 12.11
15 12.11
16 12.11
17 12.11
18 12.11
19 12.11
20 12.11
21 12.11
22 12.11
23 12.11
00 13.11
01 13.11
02 13.11
03 13.11
04 13.11
05 13.11
06 13.11
07 13.11
08 13.11
09 13.11
10 13.11
11 13.11
12 13.11
13 13.11
14 13.11
15 13.11
17 13.11
18 13.11
19 13.11
20 13.11
21 13.11
00 14.11
01 14.11
02 14.11
03 14.11
04 14.11
05 14.11
06 14.11
07 14.11
08 14.11
09 14.11
10 14.11
11 14.11
12 14.11
13 14.11
14 14.11
15 14.11
16 14.11
17 14.11
18 14.11
19 14.11
20 14.11
21 14.11
22 14.11
23 14.11
00 15.11
01 15.11
02 15.11
03 15.11
04 15.11
05 15.11
06 15.11
07 15.11
08 15.11
09 15.11
10 15.11
11 15.11
12 15.11
13 15.11
14 15.11
15 15.11
16 15.11
17 15.11
18 15.11
19 15.11
20 15.11
21 15.11
22 15.11
23 15.11
00 16.11
01 16.11
02 16.11
03 16.11
04 16.11
05 16.11
06 16.11
07 16.11
08 16.11
09 16.11
10 16.11
11 16.11
12 16.11
13 16.11
14 16.11
15 16.11
16 16.11
17 16.11
18 16.11
19 16.11
20 16.11
21 16.11
22 16.11
23 16.11
00 17.11
01 17.11
02 17.11
03 17.11
05 17.11
Ветер
(напр.,м/с)
Видим. Явления Облачность Т
(С)
Тd
(С)
f
(%)
Тe
(С)
Тes
(С)
Комфортность P
(гПа)
Po
(гПа)
Тmin
(С)
Tmax
(С)
R
(мм)
R24
(мм)
S
(см)
СВ 6 45 км 10/10 300 м
[]
+3.5 +1.7 88 -2 -2 по сезону 1011.1 1010.5
СВ 7 30 км в посл. час морось {ливн. осадки} 10/10 400 м
[]
+3.1 +1.5 89 -3 -3 прохладно 1011.4 1010.8
СВ 5 35 км {ливн. осадки, морось} 9/9 400 м
[]
+2.8 +0.5 85 -3 -3 прохладно 1012.0 1011.4 +2.6 +5.0 0.0
СВ 5 50 км 10/10 360 м
[]
+2.6 +0.6 87 -3 -3 прохладно 1012.4 1011.8
СВ 5 50 км 10/10 300 м
[]
+2.9 +1.0 87 -3 -3 прохладно 1012.8 1012.2
В 6 50 км 10/10 330 м
[]
+3.0 +1.1 87 -3 -3 прохладно 1013.5 1012.9
В 6 50 км 10/10 400 м
[]
+3.1 +0.8 85 -2 -2 по сезону 1013.7 1013.1
В 5 50 км 10/10 360 м
[]
+2.8 +0.3 84 -3 -3 прохладно 1013.6 1013.0
В 5 50 км 10/10 420 м
[]
+2.9 +0.3 83 -2 -2 по сезону 1013.7 1013.1
В 4 50 км 9/9 360 м
[]
+3.1 +0.7 84 -2 -2 по сезону 1013.7 1013.1
В 5 14 км слаб. ливневой дождь {морось} 10/10 330 м
[]
+2.8 +1.1 89 -3 -3 прохладно 1013.5 1012.9
В 6 50 км {ливн. осадки, морось} 9/9 330 м
[]
+2.8 +0.9 87 -3 -3 прохладно 1013.4 1012.8 0.0
В 6 50 км 9/9 330 м
[]
+2.8 +0.6 85 -3 -3 прохладно 1013.4 1012.8
В 5 50 км 10/10 330 м
[]
+3.2 +0.9 85 -2 -2 по сезону 1013.2 1012.6
ЮВ 6 50 км {ливн. осадки, морось} 10/10 400 м
[]
+3.8 +0.8 81 -2 -2 по сезону 1012.6 1012.0 +2.5 +4.0
ЮВ 8 50 км 10/10 300 м
[]
+4.0 +2.2 88 -2 -2 по сезону 1012.4 1011.8
ЮВ 8 45 км 10/10 300 м
[]
+4.4 +2.5 87 -2 -2 по сезону 1011.9 1011.3
ЮВ 9 26 км 10/10 300 м
[]
+4.7 +3.0 89 -2 -2 по сезону 1011.2 1010.6
ЮВ 10 24 км 9/9 330 м
[]
+5.1 +3.2 88 -1 -1 по сезону 1010.1 1009.5
ЮВ 12 8000 м ливневой дождь {морось} 9/9 270 м
[]
+5.0 +3.8 92 -2 -2 по сезону 1009.2 1008.6
ЮВ 13 4500 м слаб. ливневой дождь {морось} 9/9 180 м
[]
+5.0 +4.3 95 -2 -2 по сезону 1008.2 1007.6 0.4
ЮВ 11 9000 м в посл. час дождь {ливн. осадки} 9/9 180 м
[]
+6.2 +5.6 96 -0 -0 по сезону 1007.2 1006.6 0.3
ЮВ 9 8000 м дымка 10/10 330 м
[]
+6.7 +5.7 93 +1 +1 по сезону 1006.5 1005.9
Ю 10 10 км {ливн. осадки, дождь} 9/9 400 м
[]
+6.8 +5.3 90 +1 +1 по сезону 1005.8 1005.2 0.3
ЮЗ 5 10 км в посл. час морось {ливн. осадки, дождь} 9/9 240 м
[]
+6.3 +5.0 91 +2 +2 по сезону 1005.1 1004.5
ЮЗ 8 11 км 9/9 330 м
[]
+6.0 +4.1 88 +1 +1 по сезону 1004.6 1004.0
ЮЗ 7 11 км {ливн. осадки, дождь} 10/10 330 м
[]
+5.9 +4.1 88 +1 +1 по сезону 1004.4 1003.8 +3.9 +7.3 0.0
Ю 7 9000 м дымка 9/9 270 м
[]
+6.0 +4.6 91 +1 +1 по сезону 1004.5 1003.9
ЮЗ 8 11 км 6/6 300 м
[]
+5.9 +4.6 91 0 0 по сезону 1004.7 1004.1
ЮЗ 7 28 км {дымка} 9/9 960 м
[]
+5.9 +3.8 86 +1 +1 по сезону 1004.9 1004.3
Ю 9 35 км 1/1 960 м
[]
+6.2 +4.1 86 0 +1 по сезону 1005.1 1004.5
Ю 9 29 км 1/0
[]
+6.2 +3.8 85 0 +1 по сезону 1004.9 1004.4
Ю 9 35 км {дымка} 4/0 2000 м
[]
+6.3 +3.5 82 +1 +1 по сезону 1004.9 1004.3
Ю 5 35 км 9/9 1500 м
[]
+6.5 +3.8 83 +2 +2 по сезону 1004.6 1004.0
Ю 5 35 км в посл. час морось {ливн. осадки, дождь} 10/10 570 м
[]
+6.6 +4.5 86 +2 +2 по сезону 1004.2 1003.6
Ю 10 22 км {ливн. осадки, дождь} 4/0
[]
+7.0 +3.6 79 +1 +1 по сезону 1004.0 1003.4 0.0
Ю 9 17 км 1/0
[]
+7.1 +4.0 81 +2 +2 по сезону 1003.7 1003.2
Ю 9 14 км 4/4 540 м
[]
+7.3 +4.2 81 +2 +2 по сезону 1003.8 1003.2
Ю 12 13 км {ливн. осадки, дождь} 6/6 540 м
[]
+7.3 +4.3 81 +1 +1 по сезону 1003.3 1002.7 +5.6 +7.6
Ю 13 10 км 1/1 500 м
[]
+6.9 +4.2 83 +1 +1 по сезону 1002.9 1002.4
Ю 14 9000 м дымка 4/4 500 м
[]
+6.7 +4.0 83 0 0 по сезону 1003.0 1002.4
Ю 13 9000 м дымка 6/6 540 м
[]
+6.7 +3.6 81 0 0 по сезону 1002.7 1002.1
Ю 14 9000 м дымка 9/9 600 м
[]
+6.9 +4.1 82 0 0 по сезону 1002.4 1001.8
ЮВ 13 8000 м дымка 9/9 570 м
[]
+6.9 +4.1 82 +1 +1 по сезону 1002.0 1001.4
Ю 13 9000 м дымка 9/9 500 м
[]
+6.6 +3.7 82 0 0 по сезону 1001.4 1000.8
Ю 13 8000 м дымка 9/9 570 м
[]
+6.3 +3.2 81 -0 -0 по сезону 1000.8 1000.2
Ю 12 8000 м дымка 9/9 540 м
[]
+6.6 +3.7 82 0 0 по сезону 1000.0 999.4
ЮВ 14 9000 м слаб. ливневой дождь {морось} 9/9 660 м
[]
+7.0 +3.5 78 +1 +1 по сезону 999.2 998.7 0.0
ЮВ 15 8000 м дымка {ливн. осадки} 10/10 570 м
[]
+6.8 +3.3 78 0 0 по сезону 998.9 998.3
ЮВ 14 8000 м дымка 10/10 660 м
[]
+6.9 +3.4 78 0 0 по сезону 998.3 997.8
Ю 14 8000 м дымка {ливн. осадки} 9/9 540 м
[]
+6.7 +3.9 82 0 0 по сезону 998.0 997.4 +6.1 +7.4 0.0
Ю 14 5000 м слаб. морось 9/9 420 м
[]
+6.5 +4.4 86 -0 -0 по сезону 997.8 997.2
ЮВ 15 5000 м в посл. час морось {ливн. осадки} 10/10 400 м
[]
+6.4 +4.8 89 -1 -1 по сезону 997.6 997.0
Ю 15 5000 м слаб. дождь 9/9 360 м
[]
+6.1 +4.1 87 -1 -1 по сезону 997.7 997.1 0.8
Ю 13 9000 м в посл. час дождь 6/6 450 м
[]
+7.0 +4.3 83 +1 +1 по сезону 997.6 997.0 0.6
Ю 14 9000 м дымка 6/6 540 м
[]
+7.0 +3.6 79 +1 +1 по сезону 997.2 996.6
Ю 14 12 км {ливн. осадки, дождь} 6/6 630 м
[]
+7.3 +3.3 76 +1 +1 по сезону 997.2 996.6 0.6
Ю 14 14 км 9/9 700 м
[]
+7.3 +3.2 75 +1 +1 по сезону 997.0 996.5
Ю 13 н/о 6/6 630 м
[]
+7.4 +3.4 76 +1 +1 по сезону 997.2 996.6
Ю 14 15 км 9/9 540 м
[]
+7.3 +3.7 78 +1 +1 по сезону 997.4 996.9
Ю 12 16 км 10/10 500 м
[]
+7.3 +4.0 80 +1 +1 по сезону 997.8 997.2
Ю 11 16 км 10/10 450 м
[]
+6.8 +4.3 84 +1 +1 по сезону 998.5 997.9
Ю 14 15 км 9/9 450 м
[]
+6.6 +4.1 84 -0 -0 по сезону 999.1 998.5 +6.0 +7.5
Ю 13 15 км ливневой дождь {морось} н/о +7.1 +3.1 76 +1 +1 по сезону 999.4 998.8
Ю 12 17 км {ливн. осадки} 9/0
[]
+7.0 +2.9 75 +1 +1 по сезону 999.7 999.1
Ю 12 18 км {ливн. осадки, морось} ясно +7.3 +1.9 69 +2 +2 по сезону 1000.0 999.4 0.0
Ю 11 19 км 1/1 750 м
[]
+7.0 +1.6 68 +1 +1 по сезону 1000.3 999.8
Ю 10 19 км 6/6 750 м
[]
+7.5 +3.0 73 +2 +2 по сезону 1000.3 999.7
Ю 9 21 км {ливн. осадки, морось} 6/6 750 м
[]
+7.4 +2.9 73 +2 +2 по сезону 999.8 999.2
Ю 9 22 км 1/1 660 м
[]
+7.6 +3.6 76 +2 +2 по сезону 999.8 999.2
Ю 10 11 км слаб. ливневой дождь {морось} 9/9 1350 м
[]
+5.8 +3.3 84 -0 -0 по сезону 999.5 998.9
ЮВ 7 13 км {ливн. осадки, морось} ясно +6.4 +3.6 82 +1 +1 по сезону 999.0 998.4 0.0
Ю 8 15 км 4/4 480 м
[]
+7.0 +4.0 81 +2 +2 по сезону 999.0 998.4
Ю 8 23 км 4/4 630 м
[]
+6.9 +3.2 77 +2 +2 по сезону 999.0 998.4
Ю 9 30 км {ливн. осадки, морось} 1/1 1320 м
[]
+6.3 +2.4 76 +1 +1 по сезону 999.3 998.7 +5.5 +7.9
Ю 8 30 км 1/1 700 м
[]
+6.1 +2.0 75 +1 +1 по сезону 999.6 999.0
Ю 8 35 км 1/1 660 м
[]
+6.5 +2.5 76 +1 +1 по сезону 999.6 999.0
Ю 7 35 км 1/1 700 м
[]
+6.5 +2.3 75 +2 +2 по сезону 999.6 999.0
Ю 8 30 км 1/1 660 м
[]
+6.9 +2.6 74 +2 +2 по сезону 999.7 999.1
Ю 7 30 км 1/1 60 м
[]
+6.9 +2.1 71 +2 +3 по сезону 999.2 998.6
ЮВ 8 21 км 6/6 600 м
[]
+7.6 +3.4 75 +3 +3 по сезону 998.9 998.3
Ю 8 17 км 1/1 1200 м
[]
+7.7 +2.8 71 +3 +3 по сезону 998.7 998.1
Ю 9 18 км 1/1 1260 м
[]
+7.1 +3.1 76 +2 +2 по сезону 999.0 998.4
ЮВ 10 16 км 6/6 700 м
[]
+7.0 +2.7 74 +2 +2 по сезону 998.9 998.3
Ю 10 14 км 1/1 800 м
[]
+6.8 +2.0 71 +1 +1 по сезону 999.1 998.5
ЮВ 10 18 км 1/1 800 м
[]
+7.4 +2.6 72 +2 +2 по сезону 999.2 998.6 +5.9 +7.9
ЮВ 11 14 км 10/10 700 м
[]
+7.5 +3.3 75 +2 +2 по сезону 999.2 998.6
ЮВ 11 14 км {ливн. осадки, морось} 9/9 700 м
[]
+7.7 +4.0 77 +2 +2 по сезону 999.2 998.6
ЮВ 11 12 км {ливн. осадки, морось} 10/10 540 м
[]
+7.4 +4.4 81 +2 +2 по сезону 999.1 998.5 0.0
ЮВ 11 6000 м слаб. ливневой дождь {морось} 9/9 330 м
[]
+7.2 +5.6 90 +1 +1 по сезону 999.6 999.0 0.7
ЮВ 12 10 км в посл. час дождь {ливн. осадки} 9/9 270 м
[]
+7.3 +6.1 92 +1 +1 по сезону 999.8 999.2
ЮВ 11 8000 м в посл. час морось {ливн. осадки} 9/9 210 м
[]
+7.3 +6.3 93 +1 +1 по сезону 1000.2 999.6 0.1
ЮВ 10 7000 м в посл. час дождь {ливн. осадки} 9/9 240 м
[]
+7.5 +6.5 93 +2 +2 по сезону 1000.3 999.8 0.4
Ю 7 13 км в посл. час морось {ливн. осадки} 4/4 330 м
[]
+7.5 +5.5 87 +3 +3 по сезону 1000.9 1000.3 0.1
Ю 7 12 км 6/6 960 м
[]
+7.7 +5.7 87 +3 +3 по сезону 1001.3 1000.7
Ю 5 14 км {ливн. осадки} 1/1 1500 м
[]
+7.5 +5.3 86 +4 +4 по сезону 1002.1 1001.5 +6.9 +7.9 0.1 1.2
Ю 6 11 км слаб. ливневой дождь {морось} 9/9 1380 м
[]
+7.5 +5.8 89 +3 +3 по сезону 1003.0 1002.4
Ю 6 15 км {ливн. осадки} 6/6 270 м
[]
+7.6 +5.9 89 +3 +3 по сезону 1004.1 1003.5
Ю 5 18 км {ливн. осадки, морось} 1/1 270 м
[]
+7.5 +5.4 87 +3 +4 по сезону 1005.1 1004.5 0.0
Ю 5 20 км 1/0
[]
+7.5 +5.1 85 +4 +4 по сезону 1006.0 1005.4
Ю 6 22 км ясно +7.6 +4.9 83 +3 +4 по сезону 1006.7 1006.1
Ю 5 26 км {ливн. осадки, морось} 1/0
[]
+8.0 +4.4 78 +4 +5 по сезону 1007.5 1006.9
Ю 5 23 км ясно +8.3 +5.4 82 +5 +5 тепло 1008.1 1007.6
Ю 6 30 км ясно +7.8 +5.4 85 +4 +4 по сезону 1008.8 1008.2
Ю 7 29 км ясно +7.6 +5.8 88 +3 +3 по сезону 1009.8 1009.2
Ю 7 30 км ясно +7.5 +5.5 87 +3 +3 по сезону 1010.6 1010.0
Ю 7 10 км 1/1 120 м
[]
+6.7 +5.7 93 +2 +2 по сезону 1011.6 1011.0
Ю 8 10 км {дымка} 6/6 90 м
[]
+5.8 +5.2 96 -0 -0 по сезону 1012.9 1012.3 +5.7 +8.5
Ю 7 12 км 9/9 120 м
[]
+5.5 +4.9 96 0 0 по сезону 1013.9 1013.3
Ю 8 30 км 9/9 270 м
[]
+6.5 +4.6 88 +1 +1 по сезону 1015.0 1014.4
Ю 7 26 км {дымка} ясно +6.4 +4.5 88 +1 +1 по сезону 1015.7 1015.1
Ю 4 30 км 1/1 60 м
[]
+6.7 +4.6 86 +3 +3 по сезону 1015.8 1015.2
ЮВ 5 26 км ясно +7.0 +5.3 89 +3 +3 по сезону 1016.5 1015.9
ЮВ 5 30 км {дымка} 1/1 420 м
[]
+7.2 +4.5 83 +3 +3 по сезону 1016.8 1016.2
ЮВ 5 35 км ясно +7.7 +3.9 77 +4 +4 по сезону 1017.4 1016.8
ЮВ 8 17 км 1/1 240 м
[]
+7.2 +5.7 90 +2 +2 по сезону 1017.9 1017.3
ЮВ 7 15 км 4/4 210 м
[]
+6.9 +5.6 91 +2 +2 по сезону 1018.2 1017.6
ЮВ 7 5000 м дымка 9/9 60 м
[]
+5.6 +5.3 98 0 0 по сезону 1018.6 1018.0
В 8 1700 м дымка 10/10 30 м
[]
+4.7 +4.4 98 -1 -1 по сезону 1018.6 1018.0
В 8 11 км {дымка} 9/9 60 м
[]
+5.1 +5.0 99 -1 -1 по сезону 1018.6 1018.0 +4.6 +7.9
В 9 12 км 9/9 150 м
[]
+5.2 +4.5 95 -1 -1 по сезону 1018.8 1018.2
В 10 11 км 10/10 180 м
[]
+5.1 +4.3 95 -1 -1 по сезону 1018.9 1018.3
В 10 14 км 6/6 210 м
[]
+5.4 +4.1 91 -1 -1 по сезону 1019.5 1018.9
В 11 12 км 1/0
[]
+5.6 +4.0 89 -1 -1 по сезону 1019.2 1018.6
В 11 12 км 6/6 1050 м
[]
+6.2 +4.4 88 -0 -0 по сезону 1018.7 1018.1
В 12 15 км 4/4 450 м
[]
+6.1 +3.9 86 -0 -0 по сезону 1018.7 1018.1
В 13 15 км ясно +5.6 +3.9 89 -2 -2 по сезону 1018.3 1017.7
В 13 14 км ясно +6.2 +4.0 86 -1 -1 по сезону 1017.6 1017.0
В 14 13 км 6/6 1050 м
[]
+6.1 +3.9 86 -1 -1 по сезону 1017.5 1016.9
В 14 14 км 9/9 450 м
[]
+5.9 +3.9 87 -1 -1 по сезону 1017.0 1016.4
В 14 13 км 10/10 450 м
[]
+6.2 +4.1 86 -1 -1 по сезону 1016.8 1016.2
СВ 14 16 км 10/10 720 м
[]
+6.1 +4.3 88 -1 -1 по сезону 1016.6 1016.0 +4.7 +6.4
В 14 15 км 10/10 450 м
[]
+6.4 +4.3 86 -1 -1 по сезону 1016.0 1015.4
В 14 15 км 10/10 540 м
[]
+6.4 +4.2 86 -0 -0 по сезону 1015.3 1014.7
В 13 14 км 10/10 480 м
[]
+6.5 +4.5 87 -0 -0 по сезону 1014.9 1014.3
В 13 15 км 10/10 420 м
[]
+6.3 +4.1 86 -0 -0 по сезону 1014.1 1013.5
В 13 14 км в посл. час дождь {ливн. осадки} 9/9 400 м
[]
+6.3 +4.7 89 -1 -1 по сезону 1013.5 1012.9
В 11 8000 м слаб. ливневой дождь 9/9 360 м
[]
+6.3 +5.1 92 0 0 по сезону 1013.2 1012.6 0.2
В 11 6000 м ливневой дождь 9/9 300 м
[]
+6.2 +5.1 93 -0 -0 по сезону 1012.5 1011.9
В 12 11 км в посл. час дождь {ливн. осадки} 10/10 570 м
[]
+6.3 +5.1 92 -0 -0 по сезону 1011.4 1010.8
В 11 8000 м слаб. дождь 10/10 330 м
[]
+6.3 +5.3 93 -0 -0 по сезону 1011.0 1010.4 0.4
В 11 9000 м слаб. морось {дождь} 10/10 240 м
[]
+6.2 +5.5 95 -0 -0 по сезону 1010.4 1009.8
В 12 10 км ливневой дождь {морось} 10/10 270 м
[]
+6.3 +5.5 95 -0 -0 по сезону 1009.7 1009.1
В 12 12 км {ливн. осадки, дождь} 10/10 210 м
[]
+6.3 +5.6 95 -0 -0 по сезону 1009.1 1008.5 +5.9 +6.7 0.0 0.6
В 11 8000 м слаб. ливневой дождь {морось} 10/10 180 м
[]
+6.4 +5.9 97 -0 -0 по сезону 1008.9 1008.3
В 12 10 км 10/10 150 м
[]
+6.4 +6.0 97 -0 -0 по сезону 1008.3 1007.7
В 12 12 км в посл. час морось {ливн. осадки} 9/9 150 м
[]
+6.2 +5.8 97 -1 -1 по сезону 1007.7 1007.1 0.4
СВ 12 12 км в посл. час морось {ливн. осадки} 10/10 150 м
[]
+6.3 +5.9 97 -0 -0 по сезону 1006.9 1006.3
В 11 9000 м в посл. час морось {ливн. осадки} 9/9 120 м
[]
+6.5 +6.2 98 0 0 по сезону 1006.0 1005.4
В 11 10 км в посл. час морось {ливн. осадки} 10/10 120 м
[]
+6.6 +6.3 98 0 0 по сезону 1005.3 1004.7 0.2
СВ 10 6000 м слаб. ливневой дождь {морось} 9/9 120 м
[]
+6.6 +6.4 99 +1 +1 по сезону 1004.1 1003.5
СВ 11 5000 м слаб. ливневой дождь 10/10 120 м
[]
+6.8 +6.5 98 +1 +1 по сезону 1003.5 1002.9
СВ 10 6000 м слаб. дождь 9/9 150 м
[]
+6.8 +6.6 99 +1 +1 по сезону 1002.7 1002.2 2
СВ 9 6000 м морось {дождь} 9/9 150 м
[]
+7.0 +6.8 99 +1 +1 по сезону 1002.1 1001.5
СВ 10 8000 м слаб. морось 9/9 180 м
[]
+6.9 +6.7 99 +1 +1 по сезону 1001.4 1000.8
В 9 6000 м слаб. ливневой дождь 10/10 120 м
[]
+7.2 +7.0 99 +2 +2 по сезону 1000.8 1000.2 +6.1 +7.3 3
В 8 5000 м в посл. час морось {ливн. осадки} 10/10 120 м
[]
+7.4 +7.3 99 +2 +2 по сезону 1000.3 999.8
В 7 6000 м дымка 10/10 120 м
[]
+7.7 +7.5 99 +3 +3 по сезону 1000.2 999.7
В 6 5000 м осадки {ливн. осадки, морось} 10/10 60 м
[]
+7.8 +7.7 99 +3 +3 по сезону 1000.1 999.5 0.0
ЮВ 3 6000 м в посл. час морось {ливн. осадки, дождь} 10/10 60 м
[]
+8.2 +8.1 99 +6 +6 тепло 1000.1 999.5
ЮВ 4 н/о 9/9 90 м
[]
+8.2 +8.2 100 +5 +5 тепло 1000.6 1000.0
Ю 4 2200 м дымка {ливн. осадки, дождь} 10/10 60 м
[]
+8.2 +8.2 100 +5 +5 тепло 1001.0 1000.5 0.2
Ю 4 2700 м в посл. час морось {ливн. осадки} 10/10 30 м
[]
+8.2 +8.2 100 +5 +5 тепло 1001.7 1001.1
З 3 6000 м дымка 10/10 60 м
[]
+8.2 +8.2 100 +6 +6 тепло 1002.4 1001.8
СЗ 4 6000 м дымка {ливн. осадки} 10/10 90 м
[]
+7.6 +7.5 99 +4 +4 по сезону 1003.5 1002.9 0.2
СЗ 4 6000 м в посл. час морось {ливн. осадки} 10/10 210 м
[]
+6.3 +6.2 99 +2 +2 по сезону 1006.4 1005.8
Местоположение метеостанции Скаген (Дания): широта 57.73 долгота 10.63 высота над уровнем моря 5 м.
В архиве по умолчанию представлена погода в Скагене за последнюю неделю. Архивные данные за месяц целиком и за предыдущие месяцы, начиная с января 2011 года, Вы можете получить, выбрав интересующий диапазон дат из раскрывающегося списка и нажав кнопку "Найти!".
*Определитесь, кто Вы:
Внимание! Время в таблицах - всемирное. Для получения местного времени необходимо прибавить поправку, которая равна 1 ч.
Смотрите также архив погоды в соседних городах и на ближайших метеорологических станциях:
Партнеры нашего сайта:      
Пояснения к столбцам:
  • Ветер - указаны скорость ветра в м/с - средняя за 10 мин, порывы в срок и между сроками (в фигурных скобках) и направление, откуда дует ветер: С - северный,
  • СВ - северо-восточный, В - восточный, ЮВ - юго-восточный, Ю - южный, ЮЗ - юго-западный, З - западный, СЗ - северо-западный.
  • Видимость - горизонтальная дальность видимости в метрах или километрах. При видимости от 1 до 10 км при отсутствии осадков обычно наблюдается дымка, при ухудшении видимости до 1 км и менее - туман. В сухую погоду видимость может ухудшаться дымом, пылью или мглою.
  • Явления - указаны атмосферные явления, наблюдавшиеся в срок или в последний час перед сроком; фигурными скобками обозначены явления, наблюдавшиеся между сроками (за 1-3 часа до срока); квадратными скобками обозначены град или гололедные отложения с указанием их диаметра в мм.
  • Облачность - указаны через наклонную черту общая и нижняя облачность в баллах и высота нижней границы облаков в метрах; квадратными скобками обозначены формы облаков: Ci - перистые, Cs - перисто-слоистые, Cc - перисто-кучевые, Ac - высококучевые, As - высокослоистые, Sc - слоисто-кучевые, Ns - слоисто-дождевые, Cu - кучевые, Cb - кучево-дождевые. Подробнее классификацию облаков см. в Атласе облаков (PDF).
  • T - Температура воздуха - температура, измеренная на высоте 2 м над землей.
  • Td - Температура точки росы - температура, при понижении до которой содержащийся в воздухе водяной пар достигнет насыщения.
  • f - Относительная влажность воздуха - влажноcть воздуха, измеренная на высоте 2 м над землей.
  • Te - Эффективная температура - температура, которую ощущает одетый по сезону человек в тени. Характеристика душности погоды. При расчете учитывается влияние влажности воздуха и скорости ветра на теплоощущения человека.
  • Tes - Эффективная температура на солнце - температура, которую ощущает человек, с поправкой на солнечный нагрев. Характеристика знойности погоды. Зависит от высоты солнца над горизонтом, облачности и скорости ветра. Ночью, в пасмурную погоду, а также при ветре 12 м/с и более поправка равна нулю.
  • P - Атмосферное давление - приведенное к уровню моря атмосферное давление.
  • Po - Атмосферное давление - измеренное на уровне метеостанции атмосферное давление.
  • Tmin - Минимальная температура - минимум температуры воздуха на высоте 2 м над землей.
  • Tmax - Максимальная температура - максимум температуры воздуха на высоте 2 м над землей.
  • R - Количество осадков - Количество выпавших осадков за период времени, мм. При наведении курсора мыши на число - период времени, за который выпало указанное количество осадков.
  • R24 - Количество осадков - Количество выпавших осадков за 24 часа, мм.
  • S - Снежный покров - Высота снежного покрова, см. При наведении курсора мыши на число - состояние снежного покрова и степень покрытия местности в баллах.